Location: Bismarck
(46.7731°N, 100.8200°W)
Time: 04:36:50
(UTC-05:00)

Amateur Radio Satellites - All Passes

Search period start: 29 May 2016 04:06
Search period end: 30 May 2016 04:06
Location: Bismarck, 46.7731°N, 100.8200°W

Satellite Date Start Highest point End Downlink Frequencies (MHz)
Time Altitude Azimuth
ITUPSAT 1 29 May 04:12:58 04:16:45 23° 267° (W) 04:20:34 437.325
ISS 29 May 04:20:36 04:23:39 38° 216° (SW) 04:26:42 145.825
YUBILEINY 29 May 04:26:19 04:35:08 90° 145° (SE) 04:43:56 435.215
Cosmos 2504 29 May 04:28:18 04:35:49 35° 67° (ENE) 04:43:37 435.465 / 435.565
AO-7 29 May 04:30:12 04:37:14 29° 93° (E) 04:44:12 29.400- 29.500
Gurwin Techsat 1B 29 May 04:31:14 04:36:29 60° 289° (WNW) 04:41:42 435.225
SO-50 29 May 04:36:07 04:37:54 12° 343° (NNW) 04:39:41 436.795
BEESAT 29 May 04:37:03 04:39:34 14° 271° (W) 04:42:05 436.000
ITAMSAT 1 29 May 04:40:55 04:46:09 73° 103° (ESE) 04:51:23 435.822/435.867
JAS-2 29 May 04:51:55 04:57:00 20° 310° (NW) 05:01:49 435.910
KKS-1 29 May 05:04:19 05:08:36 44° 261° (W) 05:12:53 437.445
CUBESAT XI-V 29 May 05:24:15 05:28:18 30° 66° (ENE) 05:32:23 437.345
Cosmos 2491 29 May 05:24:41 05:33:32 89° 273° (W) 05:42:25 435.465 / 435.565
RS-15 29 May 05:29:09 05:38:14 25° 260° (W) 05:47:20 29.354- 29.394
MOZHAYETS 4 29 May 05:31:39 05:35:46 33° 264° (W) 05:39:57
STARS 29 May 05:35:47 05:39:54 39° 262° (W) 05:44:03 437.465
Gurwin Techsat 1B 29 May 06:14:20 06:15:22 11° 309° (NW) 06:16:25 435.225
HORYU 2 29 May 06:18:48 06:23:06 47° 100° (E) 06:27:24 437.375
Cosmos 2504 29 May 06:21:25 06:29:40 63° 268° (W) 06:38:19 435.465 / 435.565
ITAMSAT 1 29 May 06:21:31 06:25:05 19° 302° (WNW) 06:28:38 435.822/435.867
AO-7 29 May 06:22:21 06:30:41 73° 294° (WNW) 06:39:00 29.400- 29.500
YUBILEINY 29 May 06:24:42 06:30:42 21° 284° (WNW) 06:36:44 435.215
AO-85 29 May 06:36:24 06:41:35 46° 119° (ESE) 06:46:39 145.980
CUBESAT XI-V 29 May 07:01:20 07:05:37 35° 264° (W) 07:09:55 437.345
NOAA 15 29 May 07:11:10 07:15:56 32° 96° (E) 07:20:38 137.62
BRITE-PL 29 May 07:15:53 07:20:20 29° 92° (E) 07:24:29 437.365/2234.400
Cubesat XI-IV 29 May 07:22:07 07:26:45 29° 94° (E) 07:31:23 437.490
STRAND 1 29 May 07:22:27 07:27:11 41° 67° (ENE) 07:31:59 437.568
Cosmos 2491 29 May 07:25:05 07:31:44 23° 301° (WNW) 07:38:25 435.465 / 435.565
GOMX 1 29 May 07:32:27 07:35:46 19° 89° (E) 07:38:56 467.674
NOAA 18 29 May 07:34:01 07:39:13 42° 99° (E) 07:44:24 137.9125
PRISM 29 May 07:54:52 07:57:16 15° 60° (ENE) 07:59:42 437.425
HORYU 2 29 May 07:56:03 07:59:22 21° 298° (WNW) 08:02:41 437.375
SO-50 29 May 07:59:24 08:03:01 21° 32° (NNE) 08:06:33 436.795
CUTE-I 29 May 08:07:26 08:12:48 70° 103° (ESE) 08:18:09 437.470
LilacSat-2 29 May 08:08:49 08:12:36 81° 103° (ESE) 08:16:24 437.200
DOVE 4 29 May 08:12:26 08:15:48 21° 91° (E) 08:19:03 437.250
AO-7 29 May 08:16:22 08:22:08 21° 316° (NW) 08:27:54 29.400- 29.500
AO-85 29 May 08:17:10 08:22:13 38° 317° (NW) 08:27:07 145.980
Cosmos 2504 29 May 08:17:55 08:21:24 13° 288° (WNW) 08:24:55 435.465 / 435.565
GONETS M04 29 May 08:20:48 08:27:52 26° 61° (ENE) 08:34:52
AIST 1 29 May 08:50:51 08:55:09 54° 77° (ENE) 08:59:22
NOAA 15 29 May 08:50:52 08:55:45 38° 294° (WNW) 09:00:37 137.62
BRITE-PL 29 May 08:54:10 08:58:55 37° 293° (WNW) 09:03:17 437.365/2234.400
Cosmos 2499 29 May 08:57:46 09:04:54 28° 63° (ENE) 09:12:11 435.465 / 435.565
Cubesat XI-IV 29 May 09:01:55 09:06:59 44° 293° (WNW) 09:12:02 437.490
STRAND 1 29 May 09:02:07 09:06:30 28° 265° (W) 09:10:55 437.568
GOMX 1 29 May 09:09:41 09:14:15 49° 289° (WNW) 09:18:29 467.674
NOAA 18 29 May 09:14:57 09:19:45 32° 297° (WNW) 09:24:33 137.9125
PRISM 29 May 09:28:00 09:32:07 63° 258° (WSW) 09:36:17 437.425
PCSat 29 May 09:31:28 09:35:19 20° 106° (ESE) 09:39:10 145.827
SEEDS 29 May 09:33:03 09:36:53 32° 96° (E) 09:40:42 437.485
CANX-2 29 May 09:33:48 09:37:59 50° 99° (E) 09:42:10 2200.000
UWE-3 29 May 09:34:28 09:35:12 10° 88° (E) 09:35:56 435.000/436.395/437.385
AUBIESAT-1 29 May 09:36:47 09:39:40 27° 102° (ESE) 09:42:34 437.475
SO-50 29 May 09:39:24 09:44:10 88° 238° (WSW) 09:48:45 436.795
HO-68 29 May 09:41:51 09:48:54 55° 101° (E) 09:55:54 435.675
M-CUBED/EXP-1 PRIME 29 May 09:44:56 09:48:05 43° 105° (ESE) 09:51:13 437.505
LilacSat-2 29 May 09:45:52 09:46:19 10° 300° (WNW) 09:46:46 437.200
CUTE-I 29 May 09:48:31 09:52:20 20° 301° (WNW) 09:56:08 437.470
DOVE 4 29 May 09:49:37 09:53:43 39° 291° (WNW) 09:57:39 437.250
O/OREOS (USA 219) 29 May 09:54:56 09:59:05 35° 106° (ESE) 10:03:13 437.305
CUTE 1.7 + AOD 2 29 May 10:00:39 10:04:57 84° 104° (ESE) 10:09:15 437.475
AO-85 29 May 10:01:30 10:04:08 14° 339° (NNW) 10:06:43 145.980
CINEMA 3 29 May 10:06:30 10:10:42 81° 283° (WNW) 10:14:50 145.822/145.860
ANTELSAT 29 May 10:06:58 10:10:10 21° 64° (ENE) 10:13:21 437.575/2403.000
Oscar 11 29 May 10:12:31 10:15:52 21° 93° (E) 10:19:11 145.826/435.025
COMPASS 1 29 May 10:15:31 10:19:44 65° 101° (E) 10:23:56 437.405
AAUSAT CUBESAT 2 29 May 10:16:15 10:20:23 53° 100° (E) 10:24:29 437.432
GONETS M04 29 May 10:17:00 10:25:44 80° 264° (W) 10:34:24
AIST 1 29 May 10:29:44 10:32:16 15° 276° (W) 10:34:47
ZACube-1 29 May 10:30:05 10:33:42 28° 95° (E) 10:37:22 437.345
DELFI C3 29 May 10:32:03 10:34:33 16° 91° (E) 10:37:01 145.870
CUBEBUG 2 29 May 10:43:25 10:47:36 81° 103° (ESE) 10:51:49 437.445
CUSAT 1 29 May 10:45:07 10:47:22 12° 71° (ENE) 10:49:43 437.405
Cosmos 2499 29 May 10:50:18 10:58:54 79° 264° (W) 11:07:46 435.465 / 435.565
UNISAT 6 29 May 11:01:04 11:05:22 70° 74° (ENE) 11:09:39 437.425
FUNcube-1 29 May 11:06:46 11:10:56 64° 101° (ESE) 11:15:10 145.935
TIGRISAT 29 May 11:07:56 11:12:16 78° 75° (ENE) 11:16:34 435.000
UWE-3 29 May 11:08:02 11:12:13 80° 285° (WNW) 11:16:28 435.000/436.395/437.385
SEEDS 29 May 11:08:54 11:12:30 27° 293° (WNW) 11:16:06 437.485
CANX-2 29 May 11:10:30 11:13:31 19° 297° (WNW) 11:16:30 2200.000
AUBIESAT-1 29 May 11:11:37 11:14:06 20° 300° (WNW) 11:16:34 437.475
PCSat 29 May 11:12:45 11:18:10 70° 305° (NW) 11:23:37 145.827
DUCHIFAT 1 29 May 11:18:57 11:22:04 20° 64° (ENE) 11:25:10 145.980
M-CUBED/EXP-1 PRIME 29 May 11:20:41 11:22:22 14° 303° (WNW) 11:24:04 437.505
SO-50 29 May 11:22:01 11:23:52 12° 253° (WSW) 11:25:42 436.795
HO-68 29 May 11:30:00 11:36:22 36° 301° (WNW) 11:42:42 435.675
BUGSAT 1 29 May 11:30:14 11:32:22 14° 60° (ENE) 11:34:29 437.445
O/OREOS (USA 219) 29 May 11:34:31 11:38:32 30° 305° (NW) 11:42:31 437.305
JAS-2 29 May 11:37:25 11:42:19 19° 49° (NE) 11:47:17 435.910
CUTE 1.7 + AOD 2 29 May 11:38:28 11:40:10 12° 301° (WNW) 11:41:52 437.475
BEESAT 2 29 May 11:42:17 11:44:40 16° 112° (ESE) 11:47:04 435.950
ANTELSAT 29 May 11:42:29 11:46:38 44° 261° (W) 11:50:45 437.575/2403.000
Oscar 11 29 May 11:48:05 11:52:10 41° 290° (WNW) 11:56:16 145.826/435.025
COMPASS 1 29 May 11:52:26 11:54:49 15° 299° (WNW) 11:57:11 437.405
AAUSAT CUBESAT 2 29 May 11:52:44 11:55:30 17° 297° (WNW) 11:58:15 437.432
HUMSAT D 29 May 11:57:16 12:01:23 60° 101° (E) 12:05:33 437.325/437.525
POPSAT HIP 1 29 May 11:58:09 12:02:16 53° 72° (ENE) 12:06:24 437.405
QB50P1 29 May 11:58:20 12:02:28 54° 72° (ENE) 12:06:37 145.935-145.965
QB50P2 29 May 12:01:18 12:05:28 62° 73° (ENE) 12:09:40 145.880/145.840
POLYITAN 1 29 May 12:03:46 12:07:56 63° 74° (ENE) 12:12:08 437.675
DELFI C3 29 May 12:05:47 12:09:42 49° 288° (WNW) 12:13:36 145.870
ZACube-1 29 May 12:06:20 12:10:00 30° 292° (WNW) 12:13:42 437.345
ESTCUBE 1 29 May 12:09:25 12:12:27 17° 91° (E) 12:15:27 437.505/2401.250
BEESAT 3 29 May 12:11:30 12:15:19 50° 121° (ESE) 12:19:09 437.485
CUBEBUG 1 29 May 12:12:06 12:13:51 12° 88° (E) 12:15:35 437.445
NANOSAT C BR1 29 May 12:15:33 12:19:45 79° 77° (ENE) 12:24:00 145.865
GONETS M04 29 May 12:15:53 12:21:04 18° 286° (WNW) 12:26:15
50 SAT 29 May 12:16:16 12:17:55 12° 90° (E) 12:19:34 437.505
CUSAT 1 29 May 12:21:03 12:27:35 58° 93° (E) 12:35:18 437.405
CUBEBUG 2 29 May 12:22:05 12:23:39 12° 301° (WNW) 12:25:13 437.445
VELOX 1 29 May 12:23:31 12:26:11 16° 90° (E) 12:28:50 145.980
DANDE 29 May 12:33:56 12:39:18 36° 86° (E) 12:45:56 436.750
UNISAT 6 29 May 12:40:41 12:42:34 13° 271° (W) 12:44:28 437.425
FUNcube-1 29 May 12:44:23 12:46:44 15° 299° (WNW) 12:49:06 145.935
Cosmos 2499 29 May 12:45:21 12:50:41 18° 285° (WNW) 12:56:07 435.465 / 435.565
TIGRISAT 29 May 12:48:10 12:49:30 11° 272° (W) 12:50:50 435.000
DUCHIFAT 1 29 May 12:53:28 12:57:30 43° 261° (W) 13:01:32 145.980
UKube-1 29 May 12:56:21 12:59:46 22° 94° (E) 13:03:09 .
AISAT 29 May 12:58:49 13:02:55 36° 97° (E) 13:06:58 437.250
PCSat 29 May 12:58:52 13:02:34 18° 327° (NNW) 13:06:16 145.827
BUGSAT 1 29 May 13:03:03 13:07:14 70° 258° (WSW) 13:11:24 437.445
BEESAT 2 29 May 13:18:08 13:22:04 61° 309° (NW) 13:26:03 435.950
JAS-2 29 May 13:18:29 13:25:55 68° 70° (ENE) 13:33:46 435.910
AO-85 29 May 13:26:00 13:29:28 19° 29° (NNE) 13:32:44 145.980
HUMSAT D 29 May 13:34:07 13:36:35 16° 298° (WNW) 13:39:05 437.325/437.525
POPSAT HIP 1 29 May 13:35:45 13:38:23 16° 269° (W) 13:41:01 437.405
QB50P1 29 May 13:36:00 13:38:35 16° 269° (W) 13:41:10 145.935-145.965
Oscar 19 29 May 13:36:50 13:41:44 44° 68° (ENE) 13:46:40 437.125/150
Cosmos 2491 29 May 13:37:09 13:40:53 13° 48° (NE) 13:44:37 435.465 / 435.565
QB50P2 29 May 13:39:27 13:41:41 14° 270° (W) 13:43:55 145.880/145.840
POLYITAN 1 29 May 13:42:02 13:44:11 14° 271° (W) 13:46:19 437.675
AO-7 29 May 13:44:47 13:49:05 15° 38° (NE) 13:53:23 29.400- 29.500
ESTCUBE 1 29 May 13:45:08 13:49:37 56° 288° (WNW) 13:54:03 437.505/2401.250
DX 1 29 May 13:46:14 13:50:37 88° 104° (ESE) 13:54:58 434.975-435.025
CUBEBUG 1 29 May 13:46:18 13:50:41 75° 286° (WNW) 13:55:00 437.445
50 SAT 29 May 13:48:19 13:51:58 54° 288° (WNW) 13:55:38 437.505
BEESAT 3 29 May 13:50:04 13:53:15 23° 321° (NW) 13:56:29 437.485
NANOSAT C BR1 29 May 13:55:02 13:56:03 11° 272° (W) 13:57:03 145.865
VELOX 1 29 May 13:58:41 14:03:03 59° 288° (WNW) 14:07:22 145.980
CUSAT 1 29 May 14:03:55 14:10:11 35° 296° (WNW) 14:17:20 437.405
SPROUT 29 May 14:03:58 14:08:13 70° 102° (ESE) 14:12:27 437.525
AIST 2 29 May 14:06:53 14:10:34 32° 117° (ESE) 14:14:17 435.215
Gurwin Techsat 1B 29 May 14:15:44 14:20:44 43° 67° (ENE) 14:25:45 435.225
DANDE 29 May 14:16:04 14:21:54 48° 291° (WNW) 14:29:16 436.750
TISAT 1 29 May 14:20:51 14:24:33 30° 96° (E) 14:28:13 437.305
ITAMSAT 1 29 May 14:24:00 14:27:59 23° 60° (ENE) 14:31:58 435.822/435.867
UKube-1 29 May 14:31:55 14:35:57 39° 291° (WNW) 14:39:58 .
AISAT 29 May 14:35:36 14:39:15 26° 295° (WNW) 14:42:54 437.250
BEESAT 29 May 14:55:00 14:57:47 15° 89° (E) 15:00:33 436.000
BEESAT 2 29 May 14:58:50 15:00:44 13° 330° (NNW) 15:02:39 435.950
JAS-2 29 May 15:05:03 15:11:27 30° 270° (W) 15:18:11 435.910
AO-85 29 May 15:05:59 15:10:48 79° 53° (NE) 15:15:09 145.980
Oscar 19 29 May 15:16:49 15:21:13 27° 266° (W) 15:25:39 437.125/150
DX 1 29 May 15:24:24 15:26:08 12° 303° (WNW) 15:27:53 434.975-435.025
Cosmos 2491 29 May 15:31:39 15:40:14 54° 74° (ENE) 15:48:43 435.465 / 435.565
AO-7 29 May 15:32:04 15:39:59 52° 61° (ENE) 15:47:56 29.400- 29.500
YUBILEINY 29 May 15:37:14 15:43:20 22° 77° (ENE) 15:49:26 435.215
SPROUT 29 May 15:41:24 15:43:39 14° 300° (WNW) 15:45:53 437.525
AIST 2 29 May 15:45:15 15:49:02 34° 316° (NW) 15:52:51 435.215
Gurwin Techsat 1B 29 May 15:56:16 16:00:49 29° 266° (W) 16:05:25 435.225
TISAT 1 29 May 15:56:35 16:00:09 28° 294° (WNW) 16:03:41 437.305
SWISSCUBE 29 May 16:01:46 16:06:35 70° 103° (ESE) 16:11:22 437.505
ITAMSAT 1 29 May 16:02:00 16:07:04 57° 259° (WSW) 16:12:12 435.822/435.867
DANDE 29 May 16:04:49 16:07:10 12° 316° (NW) 16:09:40 436.750
ITUPSAT 1 29 May 16:09:05 16:13:55 73° 104° (ESE) 16:18:43 437.325
BEESAT 29 May 16:31:17 16:36:04 70° 287° (WNW) 16:40:50 436.000
PCSat 29 May 16:32:42 16:34:34 12° 21° (NNE) 16:36:27 145.827
AO-85 29 May 16:48:10 16:50:30 14° 253° (WSW) 16:52:44 145.980
KKS-1 29 May 16:52:26 16:56:16 28° 95° (E) 17:00:03 437.445
NOAA 15 29 May 16:58:16 17:00:18 12° 53° (NE) 17:02:20 137.62
Cubesat XI-IV 29 May 17:11:38 17:13:01 11° 51° (NE) 17:14:24 437.490
Cosmos 2504 29 May 17:12:47 17:18:02 22° 78° (ENE) 17:23:29 435.465 / 435.565
HORYU 2 29 May 17:19:22 17:23:43 63° 72° (ENE) 17:28:06 437.375
STARS 29 May 17:22:12 17:26:02 29° 96° (E) 17:29:50 437.465
MOZHAYETS 4 29 May 17:23:06 17:27:34 45° 99° (E) 17:32:01
NOAA 18 29 May 17:25:08 17:28:45 18° 56° (NE) 17:32:22 137.9125
AO-7 29 May 17:25:09 17:32:54 43° 261° (W) 17:40:45 29.400- 29.500
Cosmos 2491 29 May 17:28:59 17:36:47 38° 275° (W) 17:44:33 435.465 / 435.565
YUBILEINY 29 May 17:30:15 17:38:58 87° 278° (W) 17:47:43 435.215
SWISSCUBE 29 May 17:40:46 17:43:52 17° 301° (WNW) 17:46:56 437.505
RS-15 29 May 17:41:45 17:52:26 50° 111° (ESE) 18:03:40 29.354- 29.394
ITUPSAT 1 29 May 17:48:12 17:51:13 17° 301° (WNW) 17:54:13 437.325
CUTE-I 29 May 17:53:50 17:57:59 24° 61° (ENE) 18:02:09 437.470
BEESAT 29 May 18:11:53 18:12:59 11° 306° (NW) 18:14:05 436.000
PCSat 29 May 18:14:43 18:19:42 34° 45° (NE) 18:24:38 145.827
O/OREOS (USA 219) 29 May 18:23:18 18:26:15 17° 47° (NE) 18:29:09 437.305
BRITE-PL 29 May 18:28:00 18:33:26 49° 70° (ENE) 18:38:52 437.365/2234.400
KKS-1 29 May 18:28:52 18:32:51 33° 293° (WNW) 18:36:49 437.445
HO-68 29 May 18:30:39 18:33:54 14° 44° (NE) 18:37:09 435.675
NOAA 15 29 May 18:33:51 18:39:08 69° 72° (ENE) 18:44:26 137.62
GOMX 1 29 May 18:41:57 18:46:47 33° 67° (ENE) 18:51:29 467.674
Cubesat XI-IV 29 May 18:46:50 18:52:03 62° 71° (ENE) 18:57:19 437.490
BEESAT 3 29 May 18:49:26 18:51:44 15° 32° (NNE) 18:54:01 437.485
LilacSat-2 29 May 18:53:18 18:57:02 58° 74° (ENE) 19:00:46 437.200
CUBESAT XI-V 29 May 18:54:25 18:59:00 48° 99° (E) 19:03:32 437.345
HORYU 2 29 May 18:58:13 19:00:42 15° 270° (W) 19:03:12 437.375
STARS 29 May 18:58:32 19:02:22 31° 294° (WNW) 19:06:12 437.465
MOZHAYETS 4 29 May 19:00:50 19:04:28 23° 296° (WNW) 19:08:06
M-CUBED/EXP-1 PRIME 29 May 19:01:59 19:03:36 12° 56° (NE) 19:05:10 437.505
Cosmos 2504 29 May 19:03:07 19:10:24 78° 281° (W) 19:18:13 435.465 / 435.565
NOAA 18 29 May 19:03:19 19:08:47 80° 255° (WSW) 19:14:16 137.9125
DOVE 4 29 May 19:19:35 19:24:14 35° 68° (ENE) 19:28:42 437.250
CUTE 1.7 + AOD 2 29 May 19:24:06 19:24:52 10° 57° (ENE) 19:25:37 437.475
YUBILEINY 29 May 19:30:45 19:37:10 22° 302° (WNW) 19:43:36 435.215
CUTE-I 29 May 19:32:28 19:37:40 56° 259° (W) 19:42:56 437.470
STRAND 1 29 May 19:32:41 19:33:43 11° 86° (E) 19:34:45 437.568
CINEMA 3 29 May 19:35:29 19:38:20 16° 62° (ENE) 19:41:07 145.822/145.860
RS-15 29 May 19:53:17 20:04:41 62° 317° (NW) 20:16:45 29.354- 29.394
BEESAT 2 29 May 19:56:08 19:59:37 28° 42° (NE) 20:03:05 435.950
PCSat 29 May 19:58:04 20:03:15 46° 245° (WSW) 20:08:24 145.827
O/OREOS (USA 219) 29 May 20:01:42 20:06:11 73° 249° (WSW) 20:10:38 437.305
BRITE-PL 29 May 20:07:11 20:12:04 29° 267° (W) 20:16:59 437.365/2234.400
CUBEBUG 2 29 May 20:10:56 20:12:22 12° 59° (ENE) 20:13:47 437.445
HO-68 29 May 20:13:12 20:20:06 55° 65° (ENE) 20:27:02 435.675
NOAA 15 29 May 20:15:50 20:19:25 18° 270° (W) 20:23:01 137.62
GOMX 1 29 May 20:19:38 20:24:46 40° 264° (W) 20:29:45 467.674
AUBIESAT-1 29 May 20:24:57 20:28:56 70° 69° (ENE) 20:32:39 437.475
BEESAT 3 29 May 20:26:07 20:30:06 78° 54° (NE) 20:34:02 437.485
SEEDS 29 May 20:27:31 20:31:13 32° 68° (ENE) 20:34:57 437.485
Cubesat XI-IV 29 May 20:28:43 20:32:34 20° 269° (W) 20:36:26 437.490
CANX-2 29 May 20:29:08 20:33:12 50° 72° (ENE) 20:37:19 2200.000
LilacSat-2 29 May 20:30:13 20:31:43 12° 271° (W) 20:33:13 437.200
CUBESAT XI-V 29 May 20:32:25 20:36:06 23° 297° (WNW) 20:39:44 437.345
M-CUBED/EXP-1 PRIME 29 May 20:33:40 20:37:45 76° 251° (WSW) 20:41:32 437.505
UWE-3 29 May 20:33:47 20:35:54 14° 60° (ENE) 20:38:00 435.000/436.395/437.385
AIST 2 29 May 20:47:57 20:49:50 13° 28° (NNE) 20:51:44 435.215
NOAA 18 29 May 20:48:24 20:50:18 12° 273° (W) 20:52:13 137.9125
CUTE 1.7 + AOD 2 29 May 20:55:46 20:59:59 84° 76° (ENE) 21:04:15 437.475
DOVE 4 29 May 20:57:16 21:01:55 33° 264° (W) 21:06:25 437.250
Cosmos 2504 29 May 21:00:44 21:05:22 17° 305° (NW) 21:10:12 435.465 / 435.565
ISS 29 May 21:03:08 21:04:50 13° 134° (SE) 21:06:31 145.825
PRISM 29 May 21:08:00 21:10:21 15° 90° (E) 21:12:41 437.425
STRAND 1 29 May 21:08:33 21:13:44 78° 104° (ESE) 21:18:54 437.568
COMPASS 1 29 May 21:08:46 21:12:51 62° 73° (ENE) 21:16:59 437.405
AAUSAT CUBESAT 2 29 May 21:09:01 21:13:01 50° 72° (ENE) 21:17:03 437.432
Oscar 11 29 May 21:10:05 21:13:31 24° 65° (ENE) 21:17:00 145.826/435.025
CINEMA 3 29 May 21:10:24 21:15:03 66° 258° (WSW) 21:19:31 145.822/145.860
CUSAT 1 29 May 21:13:12 21:16:48 14° 47° (NE) 21:20:12 437.405
DELFI C3 29 May 21:21:23 21:23:36 15° 62° (ENE) 21:25:51 145.870
AIST 1 29 May 21:23:21 21:27:05 28° 89° (E) 21:30:51
GONETS M04 29 May 21:27:03 21:33:50 26° 79° (E) 21:40:34
DANDE 29 May 21:28:39 21:31:22 12° 44° (NE) 21:34:03 436.750
ZACube-1 29 May 21:28:42 21:32:24 31° 68° (ENE) 21:36:05 437.345
BEESAT 2 29 May 21:33:50 21:37:33 38° 241° (WSW) 21:41:16 435.950
Cosmos 2499 29 May 21:41:41 21:45:49 16° 74° (ENE) 21:50:06 435.465 / 435.565
CUBEBUG 2 29 May 21:44:02 21:48:24 87° 259° (W) 21:52:38 437.445
HO-68 29 May 22:01:46 22:08:06 34° 265° (W) 22:14:30 435.675
AUBIESAT-1 29 May 22:02:39 22:03:46 11° 264° (W) 22:04:52 437.475
SEEDS 29 May 22:03:26 22:06:57 26° 266° (W) 22:10:30 437.485
FUNcube-1 29 May 22:04:54 22:09:04 70° 74° (ENE) 22:13:12 145.935
PHONESAT 2.4 29 May 22:05:04 22:05:53 11° 155° (SSE) 22:06:42 2401.200-2431.200
BEESAT 3 29 May 22:05:42 22:07:13 12° 250° (WSW) 22:08:42 437.485
CANX-2 29 May 22:06:37 22:09:22 17° 269° (W) 22:12:08 2200.000
UWE-3 29 May 22:07:37 22:11:52 70° 258° (WSW) 22:16:04 435.000/436.395/437.385
RS-15 29 May 22:09:41 22:20:12 34° 349° (N) 22:31:04 29.354- 29.394
AIST 2 29 May 22:25:09 22:29:15 54° 49° (NE) 22:33:19 435.215
ISS 29 May 22:37:32 22:40:48 78° 152° (SSE) 22:44:04 145.825
PRISM 29 May 22:41:55 22:46:02 58° 289° (WNW) 22:50:07 437.425
Oscar 11 29 May 22:45:29 22:49:29 37° 263° (W) 22:53:31 145.826/435.025
AAUSAT CUBESAT 2 29 May 22:46:11 22:48:49 16° 270° (W) 22:51:28 437.432
COMPASS 1 29 May 22:46:47 22:48:51 13° 271° (W) 22:50:55 437.405
STRAND 1 29 May 22:49:01 22:52:19 17° 302° (WNW) 22:55:36 437.568
HUMSAT D 29 May 22:51:08 22:55:08 58° 73° (ENE) 22:59:10 437.325/437.525
UNISAT 6 29 May 22:51:52 22:53:15 11° 88° (E) 22:54:38 437.425
CUSAT 1 29 May 22:53:26 23:01:04 53° 71° (ENE) 23:07:25 437.405
DELFI C3 29 May 22:54:07 22:58:02 58° 259° (W) 23:02:00 145.870
TIGRISAT 29 May 22:58:08 23:00:00 12° 89° (E) 23:01:52 435.000
AIST 1 29 May 23:00:43 23:04:37 30° 287° (WNW) 23:08:32
ZACube-1 29 May 23:05:10 23:08:43 26° 265° (W) 23:12:15 437.345
DANDE 29 May 23:08:49 23:16:46 43° 67° (ENE) 23:24:01 436.750
CUBEBUG 1 29 May 23:10:27 23:13:14 16° 61° (ENE) 23:15:59 437.445
DX 1 29 May 23:10:39 23:12:56 14° 59° (ENE) 23:15:14 434.975-435.025
ESTCUBE 1 29 May 23:11:34 23:15:07 23° 64° (ENE) 23:18:42 437.505/2401.250
GONETS M04 29 May 23:20:55 23:29:44 77° 280° (W) 23:38:32
VELOX 1 29 May 23:23:21 23:26:42 21° 63° (ENE) 23:30:04 145.980
Cosmos 2499 29 May 23:30:07 23:37:27 81° 96° (E) 23:45:25 435.465 / 435.565
ANTELSAT 29 May 23:31:03 23:34:50 28° 96° (E) 23:38:37 437.575/2403.000
PHONESAT 2.4 29 May 23:39:24 23:41:58 23° 172° (S) 23:44:31 2401.200-2431.200
FUNcube-1 29 May 23:44:15 23:45:47 12° 271° (W) 23:47:21 145.935
UKube-1 29 May 23:53:28 23:57:10 28° 66° (ENE) 00:00:53 .
SO-50 29 May 23:57:46 00:00:45 16° 110° (ESE) 00:03:44 436.795
AISAT 29 May 23:58:39 00:02:55 46° 70° (ENE) 00:07:13 437.250
NANOSAT C BR1 30 May 00:00:21 00:00:34 10° 87° (E) 00:00:47 145.865
AIST 2 30 May 00:04:26 00:07:22 19° 247° (WSW) 00:10:17 435.215
ISS 30 May 00:14:23 00:17:28 36° 351° (N) 00:20:32 145.825
RS-15 30 May 00:25:43 00:36:56 40° 23° (NNE) 00:48:19 29.354- 29.394
UNISAT 6 30 May 00:26:11 00:30:30 78° 287° (WNW) 00:34:52 437.425
50 SAT 30 May 00:28:55 00:32:32 79° 257° (WSW) 00:36:14 437.505
HUMSAT D 30 May 00:29:06 00:31:10 14° 271° (W) 00:33:15 437.325/437.525
TIGRISAT 30 May 00:32:53 00:37:10 71° 287° (WNW) 00:41:30 435.000
DUCHIFAT 1 30 May 00:34:59 00:38:21 23° 94° (E) 00:41:41 145.980
CUSAT 1 30 May 00:36:05 00:42:49 35° 275° (W) 00:48:33 437.405
BUGSAT 1 30 May 00:43:38 00:45:34 13° 90° (E) 00:47:30 437.445
DX 1 30 May 00:44:10 00:48:34 76° 257° (WSW) 00:52:58 434.975-435.025
CUBEBUG 1 30 May 00:44:38 00:49:03 64° 259° (W) 00:53:28 437.445
ESTCUBE 1 30 May 00:47:23 00:51:41 43° 262° (W) 00:56:02 437.505/2401.250
DANDE 30 May 00:51:45 00:59:51 53° 269° (W) 01:07:08 436.750
VELOX 1 30 May 00:58:34 01:02:53 47° 261° (W) 01:07:13 145.980
SPROUT 30 May 00:59:57 01:04:14 76° 76° (ENE) 01:08:32 437.525
ANTELSAT 30 May 01:07:45 01:11:32 31° 293° (WNW) 01:15:22 437.575/2403.000
TISAT 1 30 May 01:15:06 01:18:54 33° 68° (ENE) 01:22:42 437.305
POPSAT HIP 1 30 May 01:15:35 01:19:48 67° 103° (ESE) 01:23:57 437.405
PHONESAT 2.4 30 May 01:15:39 01:18:13 23° 189° (S) 01:20:47 2401.200-2431.200
QB50P1 30 May 01:15:44 01:19:56 69° 103° (ESE) 01:24:06 145.935-145.965
QB50P2 30 May 01:18:57 01:23:11 78° 104° (ESE) 01:27:23 145.880/145.840
POLYITAN 1 30 May 01:21:25 01:25:40 80° 105° (ESE) 01:29:51 437.675
GONETS M04 30 May 01:22:20 01:28:14 19° 305° (NW) 01:34:10
Cosmos 2499 30 May 01:25:55 01:31:40 23° 300° (WNW) 01:37:47 435.465 / 435.565
UKube-1 30 May 01:29:15 01:33:09 32° 263° (W) 01:37:03 .
NANOSAT C BR1 30 May 01:32:41 01:36:54 83° 284° (WNW) 01:41:05 145.865
SWISSCUBE 30 May 01:35:37 01:38:28 16° 58° (ENE) 01:41:19 437.505
SO-50 30 May 01:35:44 01:40:39 81° 308° (NW) 01:45:34 436.795
AISAT 30 May 01:36:19 01:39:38 20° 268° (W) 01:42:58 437.250
YUBILEINY 30 May 01:42:16 01:46:11 13° 49° (NE) 01:50:06 435.215
ITUPSAT 1 30 May 01:43:03 01:46:02 17° 59° (ENE) 01:49:01 437.325
Oscar 19 30 May 01:47:36 01:49:23 12° 86° (E) 01:51:10 437.125/150
ISS 30 May 01:51:16 01:54:23 38° 11° (N) 01:57:29 145.825
BEESAT 30 May 02:03:47 02:07:38 25° 63° (ENE) 02:11:31 436.000
DUCHIFAT 1 30 May 02:10:19 02:14:09 35° 291° (WNW) 02:17:57 145.980
JAS-2 30 May 02:10:53 02:18:05 48° 96° (E) 02:24:29 435.910
BUGSAT 1 30 May 02:17:22 02:21:22 59° 287° (WNW) 02:25:18 437.445
Gurwin Techsat 1B 30 May 02:30:35 02:33:03 13° 87° (E) 02:35:31 435.225
DANDE 30 May 02:38:30 02:40:43 11° 289° (WNW) 02:42:52 436.750
RS-15 30 May 02:39:04 02:51:27 83° 52° (NE) 03:03:49 29.354- 29.394
SPROUT 30 May 02:39:15 02:40:43 12° 272° (W) 02:42:13 437.525
Cosmos 2491 30 May 02:47:56 02:49:53 11° 68° (ENE) 02:51:50 435.465 / 435.565
TISAT 1 30 May 02:51:05 02:54:36 25° 265° (W) 02:58:07 437.305
POPSAT HIP 1 30 May 02:52:49 02:55:04 14° 300° (WNW) 02:57:19 437.405
QB50P1 30 May 02:52:59 02:55:12 14° 300° (WNW) 02:57:23 145.935-145.965
PHONESAT 2.4 30 May 02:53:28 02:54:18 11° 205° (SSW) 02:55:08 2401.200-2431.200
QB50P2 30 May 02:56:34 02:58:24 13° 301° (WNW) 03:00:13 145.880/145.840
POLYITAN 1 30 May 02:59:07 03:00:52 12° 301° (WNW) 03:02:36 437.675
Cosmos 2504 30 May 03:00:33 03:03:18 12° 49° (NE) 03:06:06 435.465 / 435.565
SWISSCUBE 30 May 03:10:56 03:15:41 75° 256° (WSW) 03:20:29 437.505
NANOSAT C BR1 30 May 03:11:28 03:11:55 10° 303° (WNW) 03:12:20 145.865
SO-50 30 May 03:18:18 03:21:53 20° 329° (NNW) 03:25:28 436.795
ITUPSAT 1 30 May 03:18:34 03:23:19 72° 257° (WSW) 03:28:07 437.325
Oscar 19 30 May 03:24:18 03:29:30 85° 105° (ESE) 03:34:38 437.125/150
ISS 30 May 03:27:44 03:30:59 65° 210° (SSW) 03:34:12 145.825
AO-7 30 May 03:34:13 03:36:05 11° 82° (E) 03:37:57 29.400- 29.500
YUBILEINY 30 May 03:36:49 03:45:24 55° 74° (ENE) 03:53:59 435.215
BEESAT 30 May 03:40:40 03:45:12 43° 261° (W) 03:49:46 436.000
KKS-1 30 May 03:52:59 03:57:06 37° 68° (ENE) 04:01:13 437.445
